Content
SEND FEEDBACK

Daily
Averages
Monthly
Summary
United States of America

NEWARK, OHIO


Home > North America > United States > Ohio
Elevation: 902 feet     Latitude: 40 04N     Longitude: 082 25W

WEATHER
 
SELECT A DAY
Number of Records: 219,016;   Date Range: 7/1/96 - 10/20/14
 
SHARE

PRINT THIS DATA

[ ← Previous Day ]
WEATHER ALMANAC - JANUARY 23, 2013
[ Next Day → ]
[ °C ]   °F
Weather ElementAverageHighLow
Temperature16.3 °F21 °F (3:53 pm)7 °F (1:53 am)
Dewpoint7.8 °F12.9 °F (7:53 pm)-0.9 °F (1:53 am)
Humidity70.5 %84 % (10:53 pm)40 % (1:53 pm)
Barometer30.20 in30.37 in (2:53 am)30.07 in (11:29 pm)
Wind Speed4.9 mph11.5 mph (10:53 am)
Wind Gust17.3 mph (12:53 pm)
Weather ElementAverage
Visibility5.4 mi
Wind DirectionSSW (208.1 °)

Weather ElementTotal
Precipitation---
Heating Degree Days51 (Base 65)
Averaged from 42 records on January 23, 2013
WEATHER CONDITIONS BREAKOUT
WIND DIRECTION BREAKOUT
WEATHER BY HOUR - JANUARY 23, 2013
[ °C ]   °F
Local TimeTemperatureDewpointHumidityBarometerVisibilityWind DirectionWind SpeedGust SpeedPrecipitationEventsConditions
1:53 AM7.0 °F-0.9 °F70 %30.35 in10.0 miCalmClear
2:53 AM7.0 °F0.0 °F73 %30.37 in10.0 miCalmScattered Clouds
3:53 AM10.0 °F1.9 °F70 %30.35 in10.0 miCalmOvercast
4:53 AM10.0 °F0.0 °F64 %30.35 in10.0 miWest (280°)4.6 mphClear
5:53 AM9.0 °F0.0 °F67 %30.36 in10.0 miWSW (240°)3.5 mphClear
6:53 AM8.1 °F0.0 °F70 %30.37 in10.0 miCalmClear
7:53 AM10.9 °F1.9 °F67 %30.37 in10.0 miCalmOvercast
8:53 AM12.0 °F1.9 °F64 %30.36 in10.0 miWest (260°)4.6 mphOvercast
9:53 AM14.0 °F0.0 °F54 %30.37 in10.0 miWest (260°)6.9 mphOvercast
10:53 AM16.0 °F1.0 °F52 %30.36 in10.0 miSW (230°)11.5 mphOvercast
11:53 AM17.1 °F1.0 °F50 %30.31 in10.0 miSSW (210°)10.4 mphOvercast
12:53 PM19.9 °F0.0 °F42 %30.29 in10.0 miWest (260°)10.4 mph17.3 mphOvercast
1:53 PM19.9 °F-0.9 °F40 %30.25 in10.0 miWSW (250°)11.5 mphOvercast
2:53 PM19.9 °F-0.9 °F40 %30.23 in10.0 miWSW (240°)8.1 mphOvercast
3:53 PM21.0 °F1.0 °F42 %30.21 in10.0 miWSW (250°)10.4 mphOvercast
4:53 PM19.9 °F3.9 °F50 %30.20 in9.0 miWest (260°)10.4 mphOvercast
5:44 PM19.4 °F10.4 °F68 %30.13 in2.5 miWSW (240°)8.1 mph0.00 inSnowLight Snow
5:53 PM19.0 °F10.9 °F71 %30.19 in2.5 miWSW (250°)6.9 mph0.00 inSnowLight Snow
6:15 PM17.6 °F12.2 °F79 %30.14 in2.5 miWSW (240°)5.8 mph0.00 inSnowLight Snow
6:42 PM17.6 °F12.2 °F79 %30.14 in3.0 miWSW (250°)8.1 mph0.00 inSnowLight Snow
6:53 PM18.0 °F12.0 °F78 %30.19 in3.0 miWSW (240°)6.9 mph0.00 inSnowLight Snow
7:13 PM17.6 °F12.2 °F79 %30.13 in2.5 miWSW (240°)4.6 mph0.00 inSnowLight Snow
7:26 PM17.6 °F12.2 °F79 %30.13 in3.0 miWSW (240°)4.6 mph0.00 inSnowLight Snow
7:38 PM17.6 °F12.2 °F79 %30.13 in2.5 miWSW (250°)3.5 mph0.00 inSnowLight Snow
7:48 PM17.6 °F12.2 °F79 %30.12 in2.0 miWSW (240°)3.5 mph0.00 inSnowLight Snow
7:49 PM17.6 °F12.2 °F79 %30.12 in1.8 miWSW (240°)4.6 mph0.00 inSnowLight Snow
7:53 PM18.0 °F12.9 °F81 %30.17 in1.8 miSW (230°)4.6 mph0.00 inSnowLight Snow
8:01 PM17.6 °F12.2 °F79 %30.12 in2.0 miWSW (240°)3.5 mph0.00 inSnowLight Snow
8:16 PM17.6 °F12.2 °F79 %30.11 in2.5 miWSW (240°)3.5 mph0.00 inSnowLight Snow
8:38 PM17.6 °F12.2 °F79 %30.11 in3.0 miCalm0.00 inSnowLight Snow
8:46 PM17.6 °F12.2 °F79 %30.10 in2.5 miCalm0.00 inSnowLight Snow
8:53 PM18.0 °F12.9 °F81 %30.14 in2.5 miWSW (250°)4.6 mph0.00 inSnowLight Snow
8:59 PM17.6 °F12.2 °F79 %30.10 in2.0 miWSW (250°)4.6 mph0.00 inSnowLight Snow
9:23 PM17.6 °F12.2 °F79 %30.09 in2.5 miWest (270°)4.6 mph0.00 inSnowLight Snow
9:29 PM17.6 °F12.2 °F79 %30.10 in3.0 miWest (270°)4.6 mph0.00 inSnowLight Snow
9:49 PM17.6 °F12.2 °F79 %30.09 in2.0 miWest (260°)4.6 mph0.00 inSnowLight Snow
9:50 PM18.0 °F12.9 °F81 %30.14 in2.0 miWest (270°)4.6 mph0.00 inSnowLight Snow
10:05 PM17.6 °F12.2 °F79 %30.09 in2.5 miWest (270°)3.5 mph0.00 inSnowLight Snow
10:13 PM17.6 °F12.2 °F79 %30.09 in4.0 miWest (260°)3.5 mph0.00 inSnowLight Snow
10:53 PM17.1 °F12.9 °F84 %30.12 in4.0 miWest (260°)3.5 mph0.00 inSnowLight Snow
11:29 PM17.6 °F12.2 °F79 %30.07 in2.5 miWSW (240°)3.5 mph0.00 inSnowLight Snow
11:43 PM17.6 °F12.2 °F79 %30.07 in2.0 miWest (260°)4.6 mph0.00 inSnowLight Snow
Hourly data recorded from KLHQ, located miles away from Newark, Ohio







STORIES FROM OUR PARTNERS